Torna al catalogo

FENGYUN 1C DEB

AttivoSSO
NORAD 31482·DEBRIS·🇨🇳 China

Lanciato May 10, 1999 da Taiyuan Satellite Launch Center

Loading…

Prossimi Passaggi (prossime 24 ore)

TLE

AggiornatoSource: Space-Track

Epoca: Sep 14, 2026, 05:41 UTC

1 31482U 99025BVW 26257.23701597  .00001045  00000-0  35389-3 0  9990
2 31482  98.3881 258.7514 0088383 178.3716 242.3964 14.36626830 10776

Traccia FENGYUN 1C DEB in tempo reale con AllMySat

Download on the App Store